Printer-friendly version

IAU Minor Planet Center

Minor Planet Center

(163454) 2002 RN129

Orbital Elements

The following orbital elements are taken from MPO123438
(163454) 2002 RN129
Epoch 2007 Oct. 27.0 TT = JDT 2454400.5                 MPC
M 219.34540              (2000.0)            P               Q
n   0.78683688     Peri.  198.52306     -0.97493145     -0.12608134
a   1.1620182      Node   332.17430     +0.21865808     -0.69544931
e   0.3697864      Incl.   23.12666     -0.04119849     -0.70742756
P   1.25           H   18.9           G   0.15           U   3
From 75 observations at 4 oppositions, 2002-2007, mean residual 0".51.
An explanation of the orbital elements is available.

These orbital elements are also available in forms suitable for loading into a number of popular planetarium-type software programs.


Ephemeris

The following ephemeris is at intervals of five days. A daily ephemeris covering the same time interval is also available.

Personalized ephemerides for this (and other) objects may be generated using the Minor Planet & Comet Ephemeris Service.

Date    TT    R. A. (2000) Decl.     Delta      r     Elong.  Phase     V
2009 10 26    16 45.12   -33 39.2    1.718    1.198    42.8    34.3    21.9

Valid HTML 4.01!